Location: Guferjoch
(46.7462°N, 8.4506°E)
Time: 00:04:37
(UTC+00:00)

ARIANE 5 R/B - Pass Details

Date: 14 July 2020
Orbit: 749 x 795 km, 98.6° (Epoch: 03 August)

Event Time Altitude Azimuth Distance (km) Brightness Sun altitude
Rises 02:50:32 0° 10° (N) 3,234 6.7 -8.3°
Reaches altitude 10° 02:52:51 10° 6° (N) 2,311 5.8 -8.0°
Maximum altitude 02:57:49 55° 290° (WNW) 923 2.8 -7.4°
Drops below altitude 10° 03:02:48 10° 213° (SSW) 2,324 4.4 -6.8°
Enters shadow 03:03:30 - 212° (SSW) 2,592 4.6 -6.7°
